Simultaneous Nadir Overpasses (SNOs) Predictions

Prediction of SNOs between AQUA and NOAA-19 Satellite Orbit:

Table of predicted SNOs for the next 14.0 days since TLE Epoch: 5/6/2014
Index Date (AQUA) Time (AQUA) Lat,Lon (AQUA) SZA (AQUA ) Date (NOAA-19) Time (NOAA-19) Lat,Lon (NOAA-19) SZA (NOAA-19 ) Distance(km) Time Diff (sec)
1 05/08/2014 11:33:02 -80.29, 153.86 115.33 05/08/2014 11:31:48 -79.93, 152.70 115.49 46.14 74
2 05/08/2014 12:20:24 74.82, -12.97 57.71 05/08/2014 12:20:43 74.82, -12.98 57.71 0.31 19
3 05/10/2014 17:04:48 75.13, -84.85 57.47 05/10/2014 17:04:43 75.12, -84.83 57.47 0.69 5
4 05/12/2014 21:49:10 75.35,-156.55 57.16 05/12/2014 21:48:41 75.34,-156.46 57.15 2.58 29
5 05/12/2014 22:38:17 -74.42, 13.51 123.87 05/12/2014 22:39:19 -74.42, 13.49 123.87 0.57 62
6 05/15/2014 02:33:37 75.85, 130.96 57.17 05/15/2014 02:32:45 75.85, 130.94 57.19 0.62 52
7 05/15/2014 03:22:42 -74.82, -58.56 123.97 05/15/2014 03:23:20 -74.82, -58.57 123.98 0.34 38
8 05/17/2014 07:18:55 78.66, 48.64 60.07 05/17/2014 07:17:42 78.51, 47.72 60.03 26.17 73
9 05/17/2014 08:07:05 -75.13,-130.45 124.14 05/17/2014 08:07:19 -75.13,-130.42 124.14 1.07 14




NCC Satellite Simultaneous Nadir Overpasses (SNOs) Prediction Service
